Location: Burtsch�tz
(51.0528°N, 12.1764°E)
Time: 07:23:43
(UTC+00:00)

Cosmos 1300 - Pass Details

Date: 29 October 2020
Orbit: 511 x 514 km, 82.5° (Epoch: 01 December)

Event Time Altitude Azimuth Distance (km) Brightness Sun altitude
Rises 17:05:20 0° 197° (SSW) 2,620 6.6 -12.3°
Reaches altitude 10° 17:07:28 10° 200° (SSW) 1,738 5.7 -12.6°
Maximum altitude 17:11:15 63° 282° (WNW) 580 3.2 -13.2°
Drops below altitude 10° 17:15:04 10° 5° (N) 1,754 5.3 -13.8°
Sets 17:17:14 0° 8° (N) 2,646 6.2 -14.1°
